Year,Month,Day,Hour,Minute,Value (Times are PST for temperature in C)
2016,04,02,00,00,8.60
2016,04,02,00,01,8.60
2016,04,02,00,02,8.70
2016,04,02,00,03,8.70
2016,04,02,00,04,8.70
2016,04,02,00,05,8.70
2016,04,02,00,06,8.70
2016,04,02,00,07,8.70
2016,04,02,00,08,8.70
2016,04,02,00,09,8.70
2016,04,02,00,10,8.70
2016,04,02,00,11,8.70
2016,04,02,00,12,8.70
2016,04,02,00,13,8.80
2016,04,02,00,14,8.80
2016,04,02,00,15,8.80
2016,04,02,00,16,8.80
2016,04,02,00,17,8.80
2016,04,02,00,18,8.80
2016,04,02,00,19,8.90
2016,04,02,00,20,8.90
2016,04,02,00,21,8.90
2016,04,02,00,22,8.90
2016,04,02,00,23,9.00
2016,04,02,00,24,9.00
2016,04,02,00,25,9.10
2016,04,02,00,26,9.10
2016,04,02,00,27,9.10
2016,04,02,00,28,9.00
2016,04,02,00,29,9.00
2016,04,02,00,30,8.90
2016,04,02,00,31,8.80
2016,04,02,00,32,8.80
2016,04,02,00,33,8.70
2016,04,02,00,34,8.70
2016,04,02,00,35,8.70
2016,04,02,00,36,8.70
2016,04,02,00,37,8.70
2016,04,02,00,38,8.60
2016,04,02,00,39,8.60
2016,04,02,00,40,8.60
2016,04,02,00,41,8.60
2016,04,02,00,42,8.60
2016,04,02,00,43,8.60
2016,04,02,00,44,8.50
2016,04,02,00,45,8.50
2016,04,02,00,46,8.50
2016,04,02,00,47,8.50
2016,04,02,00,48,8.50
2016,04,02,00,49,8.50
2016,04,02,00,50,8.50
2016,04,02,00,51,8.60
2016,04,02,00,52,8.60
2016,04,02,00,53,8.60
2016,04,02,00,54,8.60
2016,04,02,00,55,8.60
2016,04,02,00,56,8.70
2016,04,02,00,57,8.70
2016,04,02,00,58,8.70
2016,04,02,00,59,8.70
2016,04,02,01,00,8.70
2016,04,02,01,01,8.70
2016,04,02,01,02,8.70
2016,04,02,01,03,8.70
2016,04,02,01,04,8.70
2016,04,02,01,05,8.70
2016,04,02,01,06,8.70
2016,04,02,01,07,8.80
2016,04,02,01,08,8.80
2016,04,02,01,09,8.80
2016,04,02,01,10,8.80
2016,04,02,01,11,8.80
2016,04,02,01,12,8.80
2016,04,02,01,13,8.80
2016,04,02,01,14,8.80
2016,04,02,01,15,8.80
2016,04,02,01,16,8.80
2016,04,02,01,17,8.80
2016,04,02,01,18,8.90
2016,04,02,01,19,8.90
2016,04,02,01,20,8.90
2016,04,02,01,21,8.90
2016,04,02,01,22,8.90
2016,04,02,01,23,8.90
2016,04,02,01,24,8.90
2016,04,02,01,25,8.90
2016,04,02,01,26,8.90
2016,04,02,01,27,8.80
2016,04,02,01,28,8.80
2016,04,02,01,29,8.80
2016,04,02,01,30,8.80
2016,04,02,01,31,8.80
2016,04,02,01,32,8.80
2016,04,02,01,33,8.70
2016,04,02,01,34,8.70
2016,04,02,01,35,8.70
2016,04,02,01,36,8.70
2016,04,02,01,37,8.70
2016,04,02,01,38,8.70
2016,04,02,01,39,8.70
2016,04,02,01,40,8.60
2016,04,02,01,41,8.60
2016,04,02,01,42,8.60
2016,04,02,01,43,8.60
2016,04,02,01,44,8.60
2016,04,02,01,45,8.50
2016,04,02,01,46,8.50
2016,04,02,01,47,8.50
2016,04,02,01,48,8.50
2016,04,02,01,49,8.50
2016,04,02,01,50,8.40
2016,04,02,01,51,8.40
2016,04,02,01,52,8.40
2016,04,02,01,53,8.40
2016,04,02,01,54,8.40
2016,04,02,01,55,8.40
2016,04,02,01,56,8.50
2016,04,02,01,57,8.50
2016,04,02,01,58,8.50
2016,04,02,01,59,8.50
2016,04,02,02,00,8.50
2016,04,02,02,01,8.50
2016,04,02,02,02,8.50
2016,04,02,02,03,8.50
2016,04,02,02,04,8.50
2016,04,02,02,05,8.50
2016,04,02,02,06,8.50
2016,04,02,02,07,8.40
2016,04,02,02,08,8.40
2016,04,02,02,09,8.40
2016,04,02,02,10,8.40
2016,04,02,02,11,8.40
2016,04,02,02,12,8.40
2016,04,02,02,13,8.40
2016,04,02,02,14,8.30
2016,04,02,02,15,8.30
2016,04,02,02,16,8.30
2016,04,02,02,17,8.30
2016,04,02,02,18,8.20
2016,04,02,02,19,8.20
2016,04,02,02,20,8.20
2016,04,02,02,21,8.20
2016,04,02,02,22,8.20
2016,04,02,02,23,8.20
2016,04,02,02,24,8.20
2016,04,02,02,25,8.20
2016,04,02,02,26,8.20
2016,04,02,02,27,8.10
2016,04,02,02,28,8.10
2016,04,02,02,29,8.10
2016,04,02,02,30,8.10
2016,04,02,02,31,8.10
2016,04,02,02,32,8.10
2016,04,02,02,33,8.10
2016,04,02,02,34,8.10
2016,04,02,02,35,8.10
2016,04,02,02,36,8.10
2016,04,02,02,37,8.10
2016,04,02,02,38,8.10
2016,04,02,02,39,8.10
2016,04,02,02,40,8.10
2016,04,02,02,41,8.10
2016,04,02,02,42,8.10
2016,04,02,02,43,8.10
2016,04,02,02,44,8.10
2016,04,02,02,45,8.10
2016,04,02,02,46,8.10
2016,04,02,02,47,8.10
2016,04,02,02,48,8.10
2016,04,02,02,49,8.10
2016,04,02,02,50,8.10
2016,04,02,02,51,8.10
2016,04,02,02,52,8.10
2016,04,02,02,53,8.10
2016,04,02,02,54,8.10
2016,04,02,02,55,8.10
2016,04,02,02,56,8.10
2016,04,02,02,57,8.10
2016,04,02,02,58,8.10
2016,04,02,02,59,8.10
2016,04,02,03,00,8.10
2016,04,02,03,01,8.10
2016,04,02,03,02,8.10
2016,04,02,03,03,8.10
2016,04,02,03,04,8.10
2016,04,02,03,05,8.10
2016,04,02,03,06,8.10
2016,04,02,03,07,8.10
2016,04,02,03,08,8.10
2016,04,02,03,09,8.10
2016,04,02,03,10,8.10
2016,04,02,03,11,8.10
2016,04,02,03,12,8.10
2016,04,02,03,13,8.10
2016,04,02,03,14,8.10
2016,04,02,03,15,8.10
2016,04,02,03,16,8.10
2016,04,02,03,17,8.10
2016,04,02,03,18,8.10
2016,04,02,03,19,8.10
2016,04,02,03,20,8.10
2016,04,02,03,21,8.10
2016,04,02,03,22,8.10
2016,04,02,03,23,8.10
2016,04,02,03,24,8.00
2016,04,02,03,25,8.00
2016,04,02,03,26,8.00
2016,04,02,03,27,7.90
2016,04,02,03,28,7.90
2016,04,02,03,29,7.90
2016,04,02,03,30,7.90
2016,04,02,03,31,7.90
2016,04,02,03,32,7.90
2016,04,02,03,33,7.90
2016,04,02,03,34,7.80
2016,04,02,03,35,7.80
2016,04,02,03,36,7.80
2016,04,02,03,37,7.80
2016,04,02,03,38,7.70
2016,04,02,03,39,7.70
2016,04,02,03,40,7.70
2016,04,02,03,41,7.70
2016,04,02,03,42,7.70
2016,04,02,03,43,7.70
2016,04,02,03,44,7.70
2016,04,02,03,45,7.70
2016,04,02,03,46,7.70
2016,04,02,03,47,7.60
2016,04,02,03,48,7.60
2016,04,02,03,49,7.60
2016,04,02,03,50,7.60
2016,04,02,03,51,7.60
2016,04,02,03,52,7.50
2016,04,02,03,53,7.50
2016,04,02,03,54,7.50
2016,04,02,03,55,7.50
2016,04,02,03,56,7.60
2016,04,02,03,57,7.60
2016,04,02,03,58,7.60
2016,04,02,03,59,7.60
2016,04,02,04,00,7.60
2016,04,02,04,01,7.60
2016,04,02,04,02,7.60
2016,04,02,04,03,7.70
2016,04,02,04,04,7.70
2016,04,02,04,05,7.70
2016,04,02,04,06,7.70
2016,04,02,04,07,7.70
2016,04,02,04,08,7.70
2016,04,02,04,09,7.70
2016,04,02,04,10,7.60
2016,04,02,04,11,7.60
2016,04,02,04,12,7.60
2016,04,02,04,13,7.60
2016,04,02,04,14,7.50
2016,04,02,04,15,7.50
2016,04,02,04,16,7.50
2016,04,02,04,17,7.50
2016,04,02,04,18,7.40
2016,04,02,04,19,7.40
2016,04,02,04,20,7.40
2016,04,02,04,21,7.40
2016,04,02,04,22,7.30
2016,04,02,04,23,7.30
2016,04,02,04,24,7.30
2016,04,02,04,25,7.30
2016,04,02,04,26,7.30
2016,04,02,04,27,7.20
2016,04,02,04,28,7.20
2016,04,02,04,29,7.20
2016,04,02,04,30,7.20
2016,04,02,04,31,7.20
2016,04,02,04,32,7.20
2016,04,02,04,33,7.10
2016,04,02,04,34,7.10
2016,04,02,04,35,7.10
2016,04,02,04,36,7.10
2016,04,02,04,37,7.10
2016,04,02,04,38,7.10
2016,04,02,04,39,7.10
2016,04,02,04,40,7.10
2016,04,02,04,41,7.10
2016,04,02,04,42,7.10
2016,04,02,04,43,7.10
2016,04,02,04,44,7.10
2016,04,02,04,45,7.10
2016,04,02,04,46,7.10
2016,04,02,04,47,7.10
2016,04,02,04,48,7.10
2016,04,02,04,49,7.10
2016,04,02,04,50,7.10
2016,04,02,04,51,7.10
2016,04,02,04,52,7.10
2016,04,02,04,53,7.10
2016,04,02,04,54,7.10
2016,04,02,04,55,7.10
2016,04,02,04,56,7.10
2016,04,02,04,57,7.10
2016,04,02,04,58,7.10
2016,04,02,04,59,7.10
2016,04,02,05,00,7.10
2016,04,02,05,01,7.10
2016,04,02,05,02,7.10
2016,04,02,05,03,7.10
2016,04,02,05,04,7.10
2016,04,02,05,05,7.10
2016,04,02,05,06,7.10
2016,04,02,05,07,7.10
2016,04,02,05,08,7.20
2016,04,02,05,09,7.20
2016,04,02,05,10,7.20
2016,04,02,05,11,7.20
2016,04,02,05,12,7.20
2016,04,02,05,13,7.20
2016,04,02,05,14,7.20
2016,04,02,05,15,7.20
2016,04,02,05,16,7.20
2016,04,02,05,17,7.20
2016,04,02,05,18,7.20
2016,04,02,05,19,7.20
2016,04,02,05,20,7.20
2016,04,02,05,21,7.20
2016,04,02,05,22,7.20
2016,04,02,05,23,7.20
2016,04,02,05,24,7.20
2016,04,02,05,25,7.30
2016,04,02,05,26,7.30
2016,04,02,05,27,7.30
2016,04,02,05,28,7.30
2016,04,02,05,29,7.30
2016,04,02,05,30,7.20
2016,04,02,05,31,7.20
2016,04,02,05,32,7.20
2016,04,02,05,33,7.20
2016,04,02,05,34,7.20
2016,04,02,05,35,7.30
2016,04,02,05,36,7.30
2016,04,02,05,37,7.30
2016,04,02,05,38,7.30
2016,04,02,05,39,7.30
2016,04,02,05,40,7.30
2016,04,02,05,41,7.30
2016,04,02,05,42,7.20
2016,04,02,05,43,7.20
2016,04,02,05,44,7.20
2016,04,02,05,45,7.20
2016,04,02,05,46,7.20
2016,04,02,05,47,7.20
2016,04,02,05,48,7.20
2016,04,02,05,49,7.20
2016,04,02,05,50,7.20
2016,04,02,05,51,7.20
2016,04,02,05,52,7.20
2016,04,02,05,53,7.20
2016,04,02,05,54,7.20
2016,04,02,05,55,7.20
2016,04,02,05,56,7.20
2016,04,02,05,57,7.20
2016,04,02,05,58,7.20
2016,04,02,05,59,7.20
2016,04,02,06,00,7.20
2016,04,02,06,01,7.20
2016,04,02,06,02,7.20
2016,04,02,06,03,7.20
2016,04,02,06,04,7.20
2016,04,02,06,05,7.20
2016,04,02,06,06,7.20
2016,04,02,06,07,7.20
2016,04,02,06,08,7.20
2016,04,02,06,09,7.20
2016,04,02,06,10,7.10
2016,04,02,06,11,7.10
2016,04,02,06,12,7.10
2016,04,02,06,13,7.10
2016,04,02,06,14,7.10
2016,04,02,06,15,7.10
2016,04,02,06,16,7.10
2016,04,02,06,17,7.10
2016,04,02,06,18,7.10
2016,04,02,06,19,7.00
2016,04,02,06,20,7.00
2016,04,02,06,21,7.00
2016,04,02,06,22,6.90
2016,04,02,06,23,6.90
2016,04,02,06,24,6.90
2016,04,02,06,25,6.90
2016,04,02,06,26,6.90
2016,04,02,06,27,6.80
2016,04,02,06,28,6.80
2016,04,02,06,29,6.80
2016,04,02,06,30,6.70
2016,04,02,06,31,6.70
2016,04,02,06,32,6.70
2016,04,02,06,33,6.70
2016,04,02,06,34,6.70
2016,04,02,06,35,6.60
2016,04,02,06,36,6.60
2016,04,02,06,37,6.60
2016,04,02,06,38,6.60
2016,04,02,06,39,6.60
2016,04,02,06,40,6.60
2016,04,02,06,41,6.60
2016,04,02,06,42,6.50
2016,04,02,06,43,6.50
2016,04,02,06,44,6.50
2016,04,02,06,45,6.50
2016,04,02,06,46,6.50
2016,04,02,06,47,6.40
2016,04,02,06,48,6.40
2016,04,02,06,49,6.40
2016,04,02,06,50,6.40
2016,04,02,06,51,6.40
2016,04,02,06,52,6.40
2016,04,02,06,53,6.30
2016,04,02,06,54,6.30
2016,04,02,06,55,6.30
2016,04,02,06,56,6.30
2016,04,02,06,57,6.30
2016,04,02,06,58,6.30
2016,04,02,06,59,6.30
2016,04,02,07,00,6.30
2016,04,02,07,01,6.30
2016,04,02,07,02,6.30
2016,04,02,07,03,6.30
2016,04,02,07,04,6.30
2016,04,02,07,05,6.30
2016,04,02,07,06,6.30
2016,04,02,07,07,6.30
2016,04,02,07,08,6.30
2016,04,02,07,09,6.30
2016,04,02,07,10,6.30
2016,04,02,07,11,6.30
2016,04,02,07,12,6.30
2016,04,02,07,13,6.30
2016,04,02,07,14,6.20
2016,04,02,07,15,6.20
2016,04,02,07,16,6.20
2016,04,02,07,17,6.20
2016,04,02,07,18,6.20
2016,04,02,07,19,6.20
2016,04,02,07,20,6.20
2016,04,02,07,21,6.20
2016,04,02,07,22,6.20
2016,04,02,07,23,6.30
2016,04,02,07,24,6.30
2016,04,02,07,25,6.30
2016,04,02,07,26,6.30
2016,04,02,07,27,6.30
2016,04,02,07,28,6.30
2016,04,02,07,29,6.30
2016,04,02,07,30,6.20
2016,04,02,07,31,6.20
2016,04,02,07,32,6.20
2016,04,02,07,33,6.20
2016,04,02,07,34,6.20
2016,04,02,07,35,6.20
2016,04,02,07,36,6.20
2016,04,02,07,37,6.20
2016,04,02,07,38,6.20
2016,04,02,07,39,6.30
2016,04,02,07,40,6.30
2016,04,02,07,41,6.30
2016,04,02,07,42,6.30
2016,04,02,07,43,6.30
2016,04,02,07,44,6.40
2016,04,02,07,45,6.40
2016,04,02,07,46,6.40
2016,04,02,07,47,6.40
2016,04,02,07,48,6.40
2016,04,02,07,49,6.50
2016,04,02,07,50,6.50
2016,04,02,07,51,6.60
2016,04,02,07,52,6.60
2016,04,02,07,53,6.70
2016,04,02,07,54,6.80
2016,04,02,07,55,6.80
2016,04,02,07,56,6.90
2016,04,02,07,57,6.90
2016,04,02,07,58,7.00
2016,04,02,07,59,7.00
2016,04,02,08,00,7.00
2016,04,02,08,01,7.00
2016,04,02,08,02,7.10
2016,04,02,08,03,7.10
2016,04,02,08,04,7.20
2016,04,02,08,05,7.20
2016,04,02,08,06,7.20
2016,04,02,08,07,7.20
2016,04,02,08,08,7.20
2016,04,02,08,09,7.20
2016,04,02,08,10,7.20
2016,04,02,08,11,7.20
2016,04,02,08,12,7.20
2016,04,02,08,13,7.20
2016,04,02,08,14,7.20
2016,04,02,08,15,7.20
2016,04,02,08,16,7.20
2016,04,02,08,17,7.20
2016,04,02,08,18,7.20
2016,04,02,08,19,7.20
2016,04,02,08,20,7.20
2016,04,02,08,21,7.20
2016,04,02,08,22,7.20
2016,04,02,08,23,7.20
2016,04,02,08,24,7.20
2016,04,02,08,25,7.20
2016,04,02,08,26,7.20
2016,04,02,08,27,7.20
2016,04,02,08,28,7.30
2016,04,02,08,29,7.30
2016,04,02,08,30,7.40
2016,04,02,08,31,7.40
2016,04,02,08,32,7.50
2016,04,02,08,33,7.50
2016,04,02,08,34,7.60
2016,04,02,08,35,7.60
2016,04,02,08,36,7.70
2016,04,02,08,37,7.80
2016,04,02,08,38,7.80
2016,04,02,08,39,7.90
2016,04,02,08,40,8.00
2016,04,02,08,41,8.10
2016,04,02,08,42,8.20
2016,04,02,08,43,8.30
2016,04,02,08,44,8.40
2016,04,02,08,45,8.50
2016,04,02,08,46,8.60
2016,04,02,08,47,8.70
2016,04,02,08,48,8.70
2016,04,02,08,49,8.80
2016,04,02,08,50,8.90
2016,04,02,08,51,8.90
2016,04,02,08,52,8.90
2016,04,02,08,53,9.00
2016,04,02,08,54,9.00
2016,04,02,08,55,9.00
2016,04,02,08,56,9.10
2016,04,02,08,57,9.10
2016,04,02,08,58,9.10
2016,04,02,08,59,9.10
2016,04,02,09,00,9.10
2016,04,02,09,01,9.10
2016,04,02,09,02,9.00
2016,04,02,09,03,9.00
2016,04,02,09,04,9.10
2016,04,02,09,05,9.10
2016,04,02,09,06,9.10
2016,04,02,09,07,9.10
2016,04,02,09,08,9.20
2016,04,02,09,09,9.20
2016,04,02,09,10,9.30
2016,04,02,09,11,9.30
2016,04,02,09,12,9.40
2016,04,02,09,13,9.40
2016,04,02,09,14,9.60
2016,04,02,09,15,9.60
2016,04,02,09,16,9.70
2016,04,02,09,17,9.80
2016,04,02,09,18,9.80
2016,04,02,09,19,9.80
2016,04,02,09,20,9.90
2016,04,02,09,21,9.90
2016,04,02,09,22,9.90
2016,04,02,09,23,9.90
2016,04,02,09,24,9.90
2016,04,02,09,25,9.90
2016,04,02,09,26,9.90
2016,04,02,09,27,9.90
2016,04,02,09,28,10.00
2016,04,02,09,29,10.00
2016,04,02,09,30,10.00
2016,04,02,09,31,10.00
2016,04,02,09,32,10.10
2016,04,02,09,33,10.10
2016,04,02,09,34,10.20
2016,04,02,09,35,10.30
2016,04,02,09,36,10.30
2016,04,02,09,37,10.40
2016,04,02,09,38,10.40
2016,04,02,09,39,10.50
2016,04,02,09,40,10.50
2016,04,02,09,41,10.60
2016,04,02,09,42,10.60
2016,04,02,09,43,10.60
2016,04,02,09,44,10.60
2016,04,02,09,45,10.60
2016,04,02,09,46,10.70
2016,04,02,09,47,10.70
2016,04,02,09,48,10.70
2016,04,02,09,49,10.70
2016,04,02,09,50,10.70
2016,04,02,09,51,10.80
2016,04,02,09,52,10.80
2016,04,02,09,53,10.80
2016,04,02,09,54,10.80
2016,04,02,09,55,10.80
2016,04,02,09,56,10.80
2016,04,02,09,57,10.90
2016,04,02,09,58,10.90
2016,04,02,09,59,10.90
2016,04,02,10,00,10.90
2016,04,02,10,01,11.00
2016,04,02,10,02,11.00
2016,04,02,10,03,11.00
2016,04,02,10,04,11.00
2016,04,02,10,05,11.00
2016,04,02,10,06,11.00
2016,04,02,10,07,11.10
2016,04,02,10,08,11.10
2016,04,02,10,09,11.20
2016,04,02,10,10,11.20
2016,04,02,10,11,11.30
2016,04,02,10,12,11.30
2016,04,02,10,13,11.40
2016,04,02,10,14,11.40
2016,04,02,10,15,11.50
2016,04,02,10,16,11.50
2016,04,02,10,17,11.60
2016,04,02,10,18,11.60
2016,04,02,10,19,11.70
2016,04,02,10,20,11.80
2016,04,02,10,21,11.90
2016,04,02,10,22,11.90
2016,04,02,10,23,11.90
2016,04,02,10,24,12.00
2016,04,02,10,25,12.00
2016,04,02,10,26,12.00
2016,04,02,10,27,12.10
2016,04,02,10,28,12.10
2016,04,02,10,29,12.00
2016,04,02,10,30,12.10
2016,04,02,10,31,12.10
2016,04,02,10,32,12.10
2016,04,02,10,33,12.10
2016,04,02,10,34,12.10
2016,04,02,10,35,12.10
2016,04,02,10,36,12.10
2016,04,02,10,37,12.10
2016,04,02,10,38,12.00
2016,04,02,10,39,11.90
2016,04,02,10,40,11.90
2016,04,02,10,41,11.80
2016,04,02,10,42,11.70
2016,04,02,10,43,11.60
2016,04,02,10,44,11.50
2016,04,02,10,45,11.40
2016,04,02,10,46,11.30
2016,04,02,10,47,11.30
2016,04,02,10,48,11.30
2016,04,02,10,49,11.30
2016,04,02,10,50,11.20
2016,04,02,10,51,11.20
2016,04,02,10,52,11.20
2016,04,02,10,53,11.30
2016,04,02,10,54,11.30
2016,04,02,10,55,11.30
2016,04,02,10,56,11.40
2016,04,02,10,57,11.40
2016,04,02,10,58,11.50
2016,04,02,10,59,11.50
2016,04,02,11,00,11.60
2016,04,02,11,01,11.60
2016,04,02,11,02,11.60
2016,04,02,11,03,11.70
2016,04,02,11,04,11.70
2016,04,02,11,05,11.80
2016,04,02,11,06,11.80
2016,04,02,11,07,11.80
2016,04,02,11,08,11.80
2016,04,02,11,09,11.80
2016,04,02,11,10,11.80
2016,04,02,11,11,11.90
2016,04,02,11,12,11.90
2016,04,02,11,13,12.00
2016,04,02,11,14,12.00
2016,04,02,11,15,12.10
2016,04,02,11,16,12.10
2016,04,02,11,17,12.20
2016,04,02,11,18,12.20
2016,04,02,11,19,12.20
2016,04,02,11,20,12.30
2016,04,02,11,21,12.40
2016,04,02,11,22,12.50
2016,04,02,11,23,12.60
2016,04,02,11,24,12.70
2016,04,02,11,25,12.70
2016,04,02,11,26,12.80
2016,04,02,11,27,12.90
2016,04,02,11,28,13.00
2016,04,02,11,29,13.10
2016,04,02,11,30,13.10
2016,04,02,11,31,13.10
2016,04,02,11,32,13.10
2016,04,02,11,33,13.10
2016,04,02,11,34,13.20
2016,04,02,11,35,13.20
2016,04,02,11,36,13.20
2016,04,02,11,37,13.30
2016,04,02,11,38,13.30
2016,04,02,11,39,13.30
2016,04,02,11,40,13.20
2016,04,02,11,41,13.20
2016,04,02,11,42,13.20
2016,04,02,11,43,13.20
2016,04,02,11,44,13.20
2016,04,02,11,45,13.20
2016,04,02,11,46,13.20
2016,04,02,11,47,13.10
2016,04,02,11,48,13.00
2016,04,02,11,49,12.90
2016,04,02,11,50,12.90
2016,04,02,11,51,12.90
2016,04,02,11,52,12.90
2016,04,02,11,53,12.90
2016,04,02,11,54,12.80
2016,04,02,11,55,12.80
2016,04,02,11,56,12.80
2016,04,02,11,57,12.80
2016,04,02,11,58,12.80
2016,04,02,11,59,12.90
2016,04,02,12,00,12.90
2016,04,02,12,01,13.00
2016,04,02,12,02,12.90
2016,04,02,12,03,12.90
2016,04,02,12,04,12.90
2016,04,02,12,05,12.80
2016,04,02,12,06,12.70
2016,04,02,12,07,12.60
2016,04,02,12,08,12.50
2016,04,02,12,09,12.50
2016,04,02,12,10,12.40
2016,04,02,12,11,12.40
2016,04,02,12,12,12.40
2016,04,02,12,13,12.40
2016,04,02,12,14,12.30
2016,04,02,12,15,12.30
2016,04,02,12,16,12.20
2016,04,02,12,17,12.20
2016,04,02,12,18,12.20
2016,04,02,12,19,12.20
2016,04,02,12,20,12.30
2016,04,02,12,21,12.30
2016,04,02,12,22,12.40
2016,04,02,12,23,12.50
2016,04,02,12,24,12.50
2016,04,02,12,25,12.60
2016,04,02,12,26,12.70
2016,04,02,12,27,12.80
2016,04,02,12,28,12.80
2016,04,02,12,29,12.90
2016,04,02,12,30,13.00
2016,04,02,12,31,13.00
2016,04,02,12,32,13.00
2016,04,02,12,33,13.10
2016,04,02,12,34,13.10
2016,04,02,12,35,13.20
2016,04,02,12,36,13.30
2016,04,02,12,37,13.30
2016,04,02,12,38,13.40
2016,04,02,12,39,13.40
2016,04,02,12,40,13.50
2016,04,02,12,41,13.50
2016,04,02,12,42,13.60
2016,04,02,12,43,13.70
2016,04,02,12,44,13.70
2016,04,02,12,45,13.80
2016,04,02,12,46,13.80
2016,04,02,12,47,13.80
2016,04,02,12,48,13.90
2016,04,02,12,49,13.90
2016,04,02,12,50,13.90
2016,04,02,12,51,13.90
2016,04,02,12,52,13.90
2016,04,02,12,53,13.90
2016,04,02,12,54,14.00
2016,04,02,12,55,14.00
2016,04,02,12,56,14.00
2016,04,02,12,57,14.00
2016,04,02,12,58,13.90
2016,04,02,12,59,13.90
2016,04,02,13,00,13.80
2016,04,02,13,01,13.80
2016,04,02,13,02,13.70
2016,04,02,13,03,13.70
2016,04,02,13,04,13.60
2016,04,02,13,05,13.60
2016,04,02,13,06,13.60
2016,04,02,13,07,13.60
2016,04,02,13,08,13.50
2016,04,02,13,09,13.50
2016,04,02,13,10,13.60
2016,04,02,13,11,13.50
2016,04,02,13,12,13.40
2016,04,02,13,13,13.40
2016,04,02,13,14,13.30
2016,04,02,13,15,13.20
2016,04,02,13,16,13.20
2016,04,02,13,17,13.20
2016,04,02,13,18,13.20
2016,04,02,13,19,13.30
2016,04,02,13,20,13.30
2016,04,02,13,21,13.40
2016,04,02,13,22,13.40
2016,04,02,13,23,13.60
2016,04,02,13,24,13.70
2016,04,02,13,25,13.80
2016,04,02,13,26,13.80
2016,04,02,13,27,13.90
2016,04,02,13,28,13.90
2016,04,02,13,29,13.90
2016,04,02,13,30,13.90
2016,04,02,13,31,14.10
2016,04,02,13,32,14.20
2016,04,02,13,33,14.30
2016,04,02,13,34,14.40
2016,04,02,13,35,14.40
2016,04,02,13,36,14.50
2016,04,02,13,37,14.60
2016,04,02,13,38,14.80
2016,04,02,13,39,14.90
2016,04,02,13,40,15.00
2016,04,02,13,41,15.10
2016,04,02,13,42,15.10
2016,04,02,13,43,15.20
2016,04,02,13,44,15.20
2016,04,02,13,45,15.10
2016,04,02,13,46,15.10
2016,04,02,13,47,15.00
2016,04,02,13,48,14.80
2016,04,02,13,49,14.60
2016,04,02,13,50,14.50
2016,04,02,13,51,14.40
2016,04,02,13,52,14.30
2016,04,02,13,53,14.20
2016,04,02,13,54,14.20
2016,04,02,13,55,14.00
2016,04,02,13,56,13.80
2016,04,02,13,57,13.70
2016,04,02,13,58,13.70
2016,04,02,13,59,13.70
2016,04,02,14,00,13.70
2016,04,02,14,01,13.70
2016,04,02,14,02,13.80
2016,04,02,14,03,13.80
2016,04,02,14,04,13.70
2016,04,02,14,05,13.70
2016,04,02,14,06,13.70
2016,04,02,14,07,13.70
2016,04,02,14,08,13.70
2016,04,02,14,09,13.60
2016,04,02,14,10,13.60
2016,04,02,14,11,13.60
2016,04,02,14,12,13.60
2016,04,02,14,13,13.70
2016,04,02,14,14,13.70
2016,04,02,14,15,13.80
2016,04,02,14,16,13.90
2016,04,02,14,17,13.90
2016,04,02,14,18,14.00
2016,04,02,14,19,14.10
2016,04,02,14,20,14.20
2016,04,02,14,21,14.30
2016,04,02,14,22,14.30
2016,04,02,14,23,14.40
2016,04,02,14,24,14.50
2016,04,02,14,25,14.60
2016,04,02,14,26,14.60
2016,04,02,14,27,14.70
2016,04,02,14,28,14.70
2016,04,02,14,29,14.80
2016,04,02,14,30,14.90
2016,04,02,14,31,15.00
2016,04,02,14,32,15.00
2016,04,02,14,33,14.90
2016,04,02,14,34,14.90
2016,04,02,14,35,14.90
2016,04,02,14,36,14.80
2016,04,02,14,37,14.80
2016,04,02,14,38,14.80
2016,04,02,14,39,14.80
2016,04,02,14,40,14.80
2016,04,02,14,41,14.80
2016,04,02,14,42,14.90
2016,04,02,14,43,14.90
2016,04,02,14,44,15.00
2016,04,02,14,45,15.00
2016,04,02,14,46,14.90
2016,04,02,14,47,14.90
2016,04,02,14,48,14.90
2016,04,02,14,49,14.70
2016,04,02,14,50,14.60
2016,04,02,14,51,14.40
2016,04,02,14,52,14.30
2016,04,02,14,53,14.10
2016,04,02,14,54,14.00
2016,04,02,14,55,13.90
2016,04,02,14,56,13.80
2016,04,02,14,57,13.60
2016,04,02,14,58,13.50
2016,04,02,14,59,13.50
2016,04,02,15,00,13.40
2016,04,02,15,01,13.40
2016,04,02,15,02,13.30
2016,04,02,15,03,13.20
2016,04,02,15,04,13.20
2016,04,02,15,05,13.20
2016,04,02,15,06,13.20
2016,04,02,15,07,13.20
2016,04,02,15,08,13.10
2016,04,02,15,09,13.10
2016,04,02,15,10,13.10
2016,04,02,15,11,13.10
2016,04,02,15,12,13.10
2016,04,02,15,13,13.10
2016,04,02,15,14,13.10
2016,04,02,15,15,13.00
2016,04,02,15,16,13.00
2016,04,02,15,17,12.90
2016,04,02,15,18,12.90
2016,04,02,15,19,12.90
2016,04,02,15,20,12.90
2016,04,02,15,21,13.00
2016,04,02,15,22,13.00
2016,04,02,15,23,13.10
2016,04,02,15,24,13.10
2016,04,02,15,25,13.10
2016,04,02,15,26,13.10
2016,04,02,15,27,13.10
2016,04,02,15,28,13.10
2016,04,02,15,29,13.10
2016,04,02,15,30,13.10
2016,04,02,15,31,13.20
2016,04,02,15,32,13.20
2016,04,02,15,33,13.30
2016,04,02,15,34,13.30
2016,04,02,15,35,13.40
2016,04,02,15,36,13.40
2016,04,02,15,37,13.50
2016,04,02,15,38,13.50
2016,04,02,15,39,13.60
2016,04,02,15,40,13.60
2016,04,02,15,41,13.60
2016,04,02,15,42,13.70
2016,04,02,15,43,13.70
2016,04,02,15,44,13.60
2016,04,02,15,45,13.60
2016,04,02,15,46,13.60
2016,04,02,15,47,13.50
2016,04,02,15,48,13.50
2016,04,02,15,49,13.50
2016,04,02,15,50,13.50
2016,04,02,15,51,13.40
2016,04,02,15,52,13.40
2016,04,02,15,53,13.40
2016,04,02,15,54,13.40
2016,04,02,15,55,13.40
2016,04,02,15,56,13.40
2016,04,02,15,57,13.40
2016,04,02,15,58,13.40
2016,04,02,15,59,13.40
2016,04,02,16,00,13.40
2016,04,02,16,01,13.40
2016,04,02,16,02,13.40
2016,04,02,16,03,13.40
2016,04,02,16,04,13.40
2016,04,02,16,05,13.40
2016,04,02,16,06,13.40
2016,04,02,16,07,13.40
2016,04,02,16,08,13.40
2016,04,02,16,09,13.40
2016,04,02,16,10,13.40
2016,04,02,16,11,13.40
2016,04,02,16,12,13.40
2016,04,02,16,13,13.40
2016,04,02,16,14,13.40
2016,04,02,16,15,13.40
2016,04,02,16,16,13.40
2016,04,02,16,17,13.50
2016,04,02,16,18,13.50
2016,04,02,16,19,13.50
2016,04,02,16,20,13.50
2016,04,02,16,21,13.40
2016,04,02,16,22,13.40
2016,04,02,16,23,13.40
2016,04,02,16,24,13.40
2016,04,02,16,25,13.40
2016,04,02,16,26,13.40
2016,04,02,16,27,13.40
2016,04,02,16,28,13.50
2016,04,02,16,29,13.50
2016,04,02,16,30,13.40
2016,04,02,16,31,13.40
2016,04,02,16,32,13.40
2016,04,02,16,33,13.50
2016,04,02,16,34,13.50
2016,04,02,16,35,13.50
2016,04,02,16,36,13.60
2016,04,02,16,37,13.60
2016,04,02,16,38,13.60
2016,04,02,16,39,13.60
2016,04,02,16,40,13.60
2016,04,02,16,41,13.60
2016,04,02,16,42,13.60
2016,04,02,16,43,13.60
2016,04,02,16,44,13.70
2016,04,02,16,45,13.70
2016,04,02,16,46,13.70
2016,04,02,16,47,13.70
2016,04,02,16,48,13.70
2016,04,02,16,49,13.80
2016,04,02,16,50,13.80
2016,04,02,16,51,13.80
2016,04,02,16,52,13.80
2016,04,02,16,53,13.70
2016,04,02,16,54,13.60
2016,04,02,16,55,13.50
2016,04,02,16,56,13.40
2016,04,02,16,57,13.30
2016,04,02,16,58,13.30
2016,04,02,16,59,13.20
2016,04,02,17,00,13.20
2016,04,02,17,01,13.20
2016,04,02,17,02,13.20
2016,04,02,17,03,13.10
2016,04,02,17,04,13.10
2016,04,02,17,05,13.10
2016,04,02,17,06,13.10
2016,04,02,17,07,13.10
2016,04,02,17,08,13.00
2016,04,02,17,09,13.00
2016,04,02,17,10,13.00
2016,04,02,17,11,12.90
2016,04,02,17,12,12.90
2016,04,02,17,13,12.90
2016,04,02,17,14,12.80
2016,04,02,17,15,12.80
2016,04,02,17,16,12.80
2016,04,02,17,17,12.70
2016,04,02,17,18,12.70
2016,04,02,17,19,12.70
2016,04,02,17,20,12.70
2016,04,02,17,21,12.70
2016,04,02,17,22,12.70
2016,04,02,17,23,12.70
2016,04,02,17,24,12.60
2016,04,02,17,25,12.60
2016,04,02,17,26,12.60
2016,04,02,17,27,12.60
2016,04,02,17,28,12.60
2016,04,02,17,29,12.60
2016,04,02,17,30,12.60
2016,04,02,17,31,12.60
2016,04,02,17,32,12.60
2016,04,02,17,33,12.60
2016,04,02,17,34,12.60
2016,04,02,17,35,12.60
2016,04,02,17,36,12.60
2016,04,02,17,37,12.60
2016,04,02,17,38,12.60
2016,04,02,17,39,12.70
2016,04,02,17,40,12.70
2016,04,02,17,41,12.70
2016,04,02,17,42,12.70
2016,04,02,17,43,12.60
2016,04,02,17,44,12.60